Location: São Paulo
(23.5507°S, 46.6334°W)
Time: 17:28:54
(UTC-03:00)

Tiros 1 - Pass Details

Date: 12 February 2026
Orbit: 618 x 649 km, 48.4° (Epoch: 6 March)

Event Time Altitude Azimuth Distance (km) Brightness Sun altitude
Rises 06:10:55 0° 225° (SW) 2,974 10.2 3.2°
Reaches altitude 10° 06:13:16 10° 225° (SW) 2,056 9.5 3.7°
Maximum altitude 06:18:01 88° 314° (NW) 649 7.3 4.8°
Drops below altitude 10° 06:22:42 10° 43° (NE) 2,020 10.2 5.8°
Sets 06:24:59 0° 43° (NE) 2,917 11.0 6.4°
